Location: Boda
(47.1872°N, 9.5454°E)
Time: 09:34:56
(UTC+00:00)

Cosmos 2297 Rocket - Pass Details

Date: 14 May 2021
Orbit: 838 x 845 km, 71.0° (Epoch: 16 June)

Event Time Altitude Azimuth Distance (km) Brightness Sun altitude
Rises 01:57:43 0° 323° (NW) 3,413 5.5 -15.0°
Reaches altitude 10° 02:00:34 10° 310° (NW) 2,474 4.6 -14.7°
Maximum altitude 02:05:01 24° 258° (WSW) 1,678 3.3 -14.2°
Enters shadow 02:06:57 20° 229° (SW) 1,852 3.3 -14.0°
